Wetterdaten: aktuell Montag, 28.05.2018 09:30
Datum Zeit Temp. A. Temp. A. min Feuchte A. Luftdruck Regen Wind Richtung Richtung Sonnenschein Solar Taupunkt Windchill Windben
28.05.2018 09:30 24,9 C 24,4 C 65 % 1023,1 hPa 0,0 l/m 2,2 km/h (1 Bft) S-SW 207 0 min 0 W/m 17,9 C 24,9 C 6,4 km/h (2 Bft)
28.05.2018 09:25 24,4 C 24,1 C 65 % 1023,2 hPa 0,0 l/m 3,0 km/h (1 Bft) S-SW 192 0 min 0 W/m 17,4 C 24,4 C 6,4 km/h (2 Bft)
28.05.2018 09:20 24,1 C 24,0 C 66 % 1023,2 hPa 0,0 l/m 3,8 km/h (1 Bft) S-SW 194 0 min 0 W/m 17,3 C 24,1 C 8,0 km/h (2 Bft)
28.05.2018 09:15 24,0 C 24,0 C 65 % 1023,2 hPa 0,0 l/m 3,7 km/h (1 Bft) S-SO 150 0 min 0 W/m 17,0 C 24,0 C 9,7 km/h (2 Bft)
28.05.2018 09:10 24,2 C 23,7 C 66 % 1023,2 hPa 0,0 l/m 2,7 km/h (1 Bft) SO 132 0 min 0 W/m 17,4 C 24,2 C 8,0 km/h (2 Bft)
28.05.2018 09:05 23,8 C 23,7 C 66 % 1023,2 hPa 0,0 l/m 3,2 km/h (1 Bft) S-SW 197 0 min 0 W/m 17,1 C 23,8 C 6,4 km/h (2 Bft)
28.05.2018 09:00 23,8 C 23,4 C 65 % 1023,2 hPa 0,0 l/m 2,0 km/h (1 Bft) S-SO 152 0 min 0 W/m 16,8 C 23,8 C 4,8 km/h (1 Bft)
28.05.2018 08:55 23,5 C 23,5 C 66 % 1023,2 hPa 0,0 l/m 1,0 km/h (0 Bft) S-SO 153 0 min 0 W/m 16,8 C 23,5 C 3,2 km/h (1 Bft)
28.05.2018 08:50 23,7 C 23,1 C 67 % 1023,2 hPa 0,0 l/m 3,4 km/h (1 Bft) S-SO 153 0 min 0 W/m 17,2 C 23,7 C 8,0 km/h (2 Bft)
28.05.2018 08:45 23,1 C 22,4 C 71 % 1023,1 hPa 0,0 l/m 2,0 km/h (1 Bft) S 174 0 min 0 W/m 17,5 C 23,1 C 4,8 km/h (1 Bft)
28.05.2018 08:40 22,4 C 22,4 C 71 % 1023,1 hPa 0,0 l/m 2,2 km/h (1 Bft) O-SO 119 0 min 0 W/m 16,9 C 22,4 C 3,2 km/h (1 Bft)
28.05.2018 08:35 23,0 C 22,9 C 69 % 1023,2 hPa 0,0 l/m 1,8 km/h (1 Bft) O-SO 119 0 min 0 W/m 17,0 C 23,0 C 4,8 km/h (1 Bft)
28.05.2018 08:30 23,2 C 23,2 C 68 % 1023,2 hPa 0,0 l/m 1,1 km/h (1 Bft) O-SO 113 0 min 0 W/m 17,0 C 23,2 C 4,8 km/h (1 Bft)
28.05.2018 08:25 23,3 C 22,6 C 69 % 1023,1 hPa 0,0 l/m 1,5 km/h (1 Bft) N-NO 17 0 min 0 W/m 17,3 C 23,3 C 3,2 km/h (1 Bft)
28.05.2018 08:20 22,6 C 21,6 C 73 % 1023,1 hPa 0,0 l/m 1,6 km/h (1 Bft) N-NO 15 0 min 0 W/m 17,5 C 22,6 C 3,2 km/h (1 Bft)
28.05.2018 08:15 21,6 C 20,3 C 76 % 1023,0 hPa 0,0 l/m 1,6 km/h (1 Bft) N-NO 15 0 min 0 W/m 17,2 C 21,6 C 4,8 km/h (1 Bft)
28.05.2018 08:10 20,3 C 19,1 C 82 % 1023,0 hPa 0,0 l/m 0,5 km/h (0 Bft) NO 37 0 min 0 W/m 17,1 C 20,3 C 1,6 km/h (1 Bft)
28.05.2018 08:05 19,1 C 18,7 C 83 % 1023,1 hPa 0,0 l/m 1,0 km/h (0 Bft) NO 37 0 min 0 W/m 16,1 C 19,1 C 3,2 km/h (1 Bft)
28.05.2018 08:00 18,7 C 18,4 C 84 % 1023,0 hPa 0,0 l/m 1,1 km/h (1 Bft) NO 37 0 min 0 W/m 15,9 C 18,7 C 3,2 km/h (1 Bft)
28.05.2018 07:55 18,4 C 18,1 C 85 % 1023,1 hPa 0,0 l/m 1,4 km/h (1 Bft) NO 37 0 min 0 W/m 15,8 C 18,4 C 3,2 km/h (1 Bft)
28.05.2018 07:50 18,1 C 17,9 C 85 % 1023,0 hPa 0,0 l/m 1,1 km/h (1 Bft) NO 37 0 min 0 W/m 15,5 C 18,1 C 3,2 km/h (1 Bft)
28.05.2018 07:45 17,9 C 17,6 C 86 % 1023,1 hPa 0,0 l/m 1,5 km/h (1 Bft) NO 37 0 min 0 W/m 15,5 C 17,9 C 3,2 km/h (1 Bft)
28.05.2018 07:40 17,6 C 17,4 C 85 % 1023,0 hPa 0,0 l/m 0,5 km/h (0 Bft) N-NO 18 0 min 0 W/m 15,0 C 17,6 C 3,2 km/h (1 Bft)
28.05.2018 07:35 17,4 C 17,3 C 85 % 1023,1 hPa 0,0 l/m 2,9 km/h (1 Bft) N-NO 17 0 min 0 W/m 14,8 C 17,4 C 4,8 km/h (1 Bft)
28.05.2018 07:30 17,3 C 17,1 C 86 % 1023,1 hPa 0,0 l/m 3,0 km/h (1 Bft) N-NO 17 0 min 0 W/m 14,9 C 17,3 C 4,8 km/h (1 Bft)
28.05.2018 07:25 17,1 C 16,9 C 86 % 1023,1 hPa 0,0 l/m 3,0 km/h (1 Bft) N 355 0 min 0 W/m 14,7 C 17,1 C 6,4 km/h (2 Bft)
28.05.2018 07:20 16,9 C 16,7 C 86 % 1023,1 hPa 0,0 l/m 2,8 km/h (1 Bft) N-NO 29 0 min 0 W/m 14,5 C 16,9 C 6,4 km/h (2 Bft)
28.05.2018 07:15 16,7 C 16,6 C 86 % 1023,0 hPa 0,0 l/m 3,5 km/h (1 Bft) N 360 0 min 0 W/m 14,3 C 16,7 C 6,4 km/h (2 Bft)
28.05.2018 07:10 16,6 C 16,4 C 86 % 1023,1 hPa 0,0 l/m 2,6 km/h (1 Bft) O-NO 57 0 min 0 W/m 14,2 C 16,6 C 4,8 km/h (1 Bft)
28.05.2018 07:05 16,4 C 16,3 C 86 % 1023,1 hPa 0,0 l/m 2,3 km/h (1 Bft) NO 40 0 min 0 W/m 14,1 C 16,4 C 4,8 km/h (1 Bft)
28.05.2018 07:00 16,3 C 16,2 C 87 % 1023,1 hPa 0,0 l/m 2,5 km/h (1 Bft) NO 42 0 min 0 W/m 14,1 C 16,3 C 4,8 km/h (1 Bft)
28.05.2018 06:55 16,2 C 16,1 C 87 % 1023,1 hPa 0,0 l/m 2,9 km/h (1 Bft) NO 36 0 min 0 W/m 14,0 C 16,2 C 4,8 km/h (1 Bft)
28.05.2018 06:50 16,2 C 16,1 C 87 % 1023,1 hPa 0,0 l/m 3,2 km/h (1 Bft) N-NO 19 0 min 0 W/m 14,0 C 16,2 C 6,4 km/h (2 Bft)
28.05.2018 06:45 16,1 C 15,9 C 87 % 1023,0 hPa 0,0 l/m 3,7 km/h (1 Bft) N-NW 344 0 min 0 W/m 13,9 C 16,1 C 6,4 km/h (2 Bft)
28.05.2018 06:40 15,9 C 15,9 C 88 % 1023,1 hPa 0,0 l/m 2,8 km/h (1 Bft) N 351 0 min 0 W/m 13,9 C 15,9 C 4,8 km/h (1 Bft)
28.05.2018 06:35 15,9 C 15,8 C 88 % 1023,1 hPa 0,0 l/m 2,2 km/h (1 Bft) N-NW 345 0 min 0 W/m 13,9 C 15,9 C 4,8 km/h (1 Bft)
28.05.2018 06:30 15,8 C 15,8 C 88 % 1023,2 hPa 0,0 l/m 0,6 km/h (0 Bft) NO 55 0 min 0 W/m 13,8 C 15,8 C 3,2 km/h (1 Bft)
28.05.2018 06:25 15,8 C 15,8 C 88 % 1023,1 hPa 0,0 l/m 2,4 km/h (1 Bft) NO 55 0 min 0 W/m 13,8 C 15,8 C 4,8 km/h (1 Bft)
28.05.2018 06:20 15,8 C 15,8 C 88 % 1023,1 hPa 0,0 l/m 2,1 km/h (1 Bft) O-NO 59 0 min 0 W/m 13,8 C 15,8 C 4,8 km/h (1 Bft)
28.05.2018 06:15 15,8 C 15,7 C 88 % 1023,2 hPa 0,0 l/m 0,4 km/h (0 Bft) S 175 0 min 0 W/m 13,8 C 15,8 C 1,6 km/h (1 Bft)
28.05.2018 06:10 15,7 C 15,7 C 88 % 1023,2 hPa 0,0 l/m 0,6 km/h (0 Bft) S 178 0 min 0 W/m 13,7 C 15,7 C 3,2 km/h (1 Bft)
28.05.2018 06:05 15,7 C 15,7 C 88 % 1023,2 hPa 0,0 l/m 3,1 km/h (1 Bft) S 178 0 min 0 W/m 13,7 C 15,7 C 4,8 km/h (1 Bft)
28.05.2018 06:00 15,7 C 15,6 C 88 % 1023,2 hPa 0,0 l/m 3,1 km/h (1 Bft) S 179 0 min 0 W/m 13,7 C 15,7 C 4,8 km/h (1 Bft)
28.05.2018 05:55 15,7 C 15,6 C 87 % 1023,1 hPa 0,0 l/m 3,9 km/h (1 Bft) S 172 0 min 0 W/m 13,5 C 15,7 C 6,4 km/h (2 Bft)
28.05.2018 05:50 15,7 C 15,7 C 87 % 1023,0 hPa 0,0 l/m 1,6 km/h (1 Bft) S 171 0 min 0 W/m 13,5 C 15,7 C 6,4 km/h (2 Bft)
28.05.2018 05:45 15,7 C 15,7 C 87 % 1022,9 hPa 0,0 l/m 0,7 km/h (0 Bft) N-NO 30 0 min 0 W/m 13,5 C 15,7 C 3,2 km/h (1 Bft)
28.05.2018 05:40 15,7 C 15,7 C 87 % 1022,8 hPa 0,0 l/m 1,0 km/h (0 Bft) N-NO 30 0 min 0 W/m 13,5 C 15,7 C 3,2 km/h (1 Bft)
28.05.2018 05:35 15,7 C 15,7 C 87 % 1022,8 hPa 0,0 l/m 0,9 km/h (0 Bft) N-NO 12 0 min 0 W/m 13,5 C 15,7 C 3,2 km/h (1 Bft)
28.05.2018 05:30 15,7 C 15,7 C 87 % 1022,8 hPa 0,0 l/m 0,2 km/h (0 Bft) N 9 0 min 0 W/m 13,5 C 15,7 C 1,6 km/h (1 Bft)
28.05.2018 05:25 15,7 C 15,7 C 87 % 1022,7 hPa 0,0 l/m 1,4 km/h (1 Bft) N 9 0 min 0 W/m 13,5 C 15,7 C 3,2 km/h (1 Bft)
28.05.2018 05:20 15,8 C 15,8 C 87 % 1022,6 hPa 0,0 l/m 1,8 km/h (1 Bft) N-NO 14 0 min 0 W/m 13,6 C 15,8 C 4,8 km/h (1 Bft)
28.05.2018 05:15 15,8 C 15,8 C 87 % 1022,6 hPa 0,0 l/m 2,3 km/h (1 Bft) N-NO 17 0 min 0 W/m 13,6 C 15,8 C 4,8 km/h (1 Bft)
28.05.2018 05:10 15,9 C 15,9 C 87 % 1022,6 hPa 0,0 l/m 0,6 km/h (0 Bft) N-NO 30 0 min 0 W/m 13,7 C 15,9 C 3,2 km/h (1 Bft)
28.05.2018 05:05 15,9 C 15,9 C 87 % 1022,6 hPa 0,0 l/m 0,5 km/h (0 Bft) N-NO 30 0 min 0 W/m 13,7 C 15,9 C 4,8 km/h (1 Bft)
28.05.2018 05:00 16,0 C 16,0 C 87 % 1022,7 hPa 0,0 l/m 2,0 km/h (1 Bft) N-NO 30 0 min 0 W/m 13,8 C 16,0 C 3,2 km/h (1 Bft)
28.05.2018 04:55 16,1 C 16,1 C 87 % 1022,8 hPa 0,0 l/m 0,8 km/h (0 Bft) N-NO 30 0 min 0 W/m 13,9 C 16,1 C 3,2 km/h (1 Bft)
28.05.2018 04:50 16,1 C 16,1 C 87 % 1022,8 hPa 0,0 l/m 0,0 km/h (0 Bft) N-NO 30 0 min 0 W/m 13,9 C 16,1 C 1,6 km/h (1 Bft)
28.05.2018 04:45 16,2 C 16,2 C 87 % 1022,8 hPa 0,0 l/m 0,0 km/h (0 Bft) N-NO 30 0 min 0 W/m 14,0 C 16,2 C 0,0 km/h (0 Bft)
28.05.2018 04:40 16,2 C 16,2 C 87 % 1022,9 hPa 0,0 l/m 0,0 km/h (0 Bft) N-NO 30 0 min 0 W/m 14,0 C 16,2 C 0,0 km/h (0 Bft)
28.05.2018 04:35 16,2 C 16,2 C 86 % 1022,8 hPa 0,0 l/m 0,0 km/h (0 Bft) N-NO 30 0 min 0 W/m 13,9 C 16,2 C 0,0 km/h (0 Bft)
28.05.2018 04:30 16,3 C 16,3 C 86 % 1022,8 hPa 0,0 l/m 0,1 km/h (0 Bft) N-NO 30 0 min 0 W/m 14,0 C 16,3 C 1,6 km/h (1 Bft)
28.05.2018 04:25 16,3 C 16,3 C 86 % 1022,7 hPa 0,0 l/m 0,5 km/h (0 Bft) N-NO 30 0 min 0 W/m 14,0 C 16,3 C 3,2 km/h (1 Bft)
28.05.2018 04:20 16,4 C 16,4 C 86 % 1022,7 hPa 0,0 l/m 1,8 km/h (1 Bft) N-NO 30 0 min 0 W/m 14,1 C 16,4 C 3,2 km/h (1 Bft)
28.05.2018 04:15 16,4 C 16,4 C 86 % 1022,6 hPa 0,0 l/m 2,4 km/h (1 Bft) N-NO 26 0 min 0 W/m 14,1 C 16,4 C 4,8 km/h (1 Bft)
28.05.2018 04:10 16,5 C 16,5 C 86 % 1022,5 hPa 0,0 l/m 2,0 km/h (1 Bft) N 355 0 min 0 W/m 14,1 C 16,5 C 4,8 km/h (1 Bft)
28.05.2018 04:05 16,6 C 16,6 C 86 % 1022,5 hPa 0,0 l/m 2,3 km/h (1 Bft) N-NO 13 0 min 0 W/m 14,2 C 16,6 C 4,8 km/h (1 Bft)
28.05.2018 04:00 16,6 C 16,6 C 86 % 1022,5 hPa 0,0 l/m 2,4 km/h (1 Bft) N 9 0 min 0 W/m 14,2 C 16,6 C 4,8 km/h (1 Bft)
28.05.2018 03:55 16,6 C 16,6 C 86 % 1022,4 hPa 0,0 l/m 2,8 km/h (1 Bft) N 351 0 min 0 W/m 14,2 C 16,6 C 4,8 km/h (1 Bft)
28.05.2018 03:50 16,7 C 16,7 C 85 % 1022,5 hPa 0,0 l/m 1,4 km/h (1 Bft) N 360 0 min 0 W/m 14,2 C 16,7 C 3,2 km/h (1 Bft)
28.05.2018 03:45 16,8 C 16,8 C 85 % 1022,4 hPa 0,0 l/m 2,6 km/h (1 Bft) N 360 0 min 0 W/m 14,3 C 16,8 C 4,8 km/h (1 Bft)
28.05.2018 03:40 16,9 C 16,9 C 85 % 1022,4 hPa 0,0 l/m 1,8 km/h (1 Bft) NO 36 0 min 0 W/m 14,4 C 16,9 C 4,8 km/h (1 Bft)
28.05.2018 03:35 17,0 C 17,0 C 85 % 1022,5 hPa 0,0 l/m 1,4 km/h (1 Bft) N 355 0 min 0 W/m 14,5 C 17,0 C 3,2 km/h (1 Bft)
28.05.2018 03:30 17,1 C 17,1 C 85 % 1022,4 hPa 0,0 l/m 1,7 km/h (1 Bft) N 355 0 min 0 W/m 14,6 C 17,1 C 3,2 km/h (1 Bft)
28.05.2018 03:25 17,1 C 17,1 C 85 % 1022,5 hPa 0,0 l/m 0,4 km/h (0 Bft) N-NW 346 0 min 0 W/m 14,6 C 17,1 C 1,6 km/h (1 Bft)
28.05.2018 03:20 17,1 C 17,1 C 85 % 1022,5 hPa 0,0 l/m 0,5 km/h (0 Bft) N-NW 346 0 min 0 W/m 14,6 C 17,1 C 3,2 km/h (1 Bft)
28.05.2018 03:15 17,1 C 17,1 C 85 % 1022,4 hPa 0,0 l/m 0,6 km/h (0 Bft) N-NW 346 0 min 0 W/m 14,6 C 17,1 C 3,2 km/h (1 Bft)
28.05.2018 03:10 17,1 C 17,1 C 84 % 1022,5 hPa 0,0 l/m 2,1 km/h (1 Bft) N-NW 346 0 min 0 W/m 14,4 C 17,1 C 3,2 km/h (1 Bft)
28.05.2018 03:05 17,2 C 17,2 C 84 % 1022,6 hPa 0,0 l/m 1,9 km/h (1 Bft) O 80 0 min 0 W/m 14,5 C 17,2 C 3,2 km/h (1 Bft)
28.05.2018 03:00 17,3 C 17,2 C 84 % 1022,5 hPa 0,0 l/m 2,4 km/h (1 Bft) O 81 0 min 0 W/m 14,6 C 17,3 C 4,8 km/h (1 Bft)
28.05.2018 02:55 17,3 C 17,3 C 83 % 1022,5 hPa 0,0 l/m 2,4 km/h (1 Bft) S-SO 158 0 min 0 W/m 14,4 C 17,3 C 6,4 km/h (2 Bft)
28.05.2018 02:50 17,4 C 17,4 C 83 % 1022,5 hPa 0,0 l/m 2,5 km/h (1 Bft) S-SO 159 0 min 0 W/m 14,5 C 17,4 C 6,4 km/h (2 Bft)
28.05.2018 02:45 17,4 C 17,4 C 84 % 1022,5 hPa 0,0 l/m 1,1 km/h (1 Bft) S-SO 165 0 min 0 W/m 14,7 C 17,4 C 3,2 km/h (1 Bft)
28.05.2018 02:40 17,5 C 17,5 C 84 % 1022,4 hPa 0,0 l/m 0,0 km/h (0 Bft) S-SO 165 0 min 0 W/m 14,8 C 17,5 C 0,0 km/h (0 Bft)
28.05.2018 02:35 17,5 C 17,5 C 83 % 1022,5 hPa 0,0 l/m 0,8 km/h (0 Bft) S-SO 165 0 min 0 W/m 14,6 C 17,5 C 1,6 km/h (1 Bft)
28.05.2018 02:30 17,6 C 17,6 C 83 % 1022,5 hPa 0,0 l/m 1,4 km/h (1 Bft) S-SO 165 0 min 0 W/m 14,7 C 17,6 C 3,2 km/h (1 Bft)
28.05.2018 02:25 17,6 C 17,6 C 83 % 1022,4 hPa 0,0 l/m 0,6 km/h (0 Bft) S-SO 165 0 min 0 W/m 14,7 C 17,6 C 3,2 km/h (1 Bft)
28.05.2018 02:20 17,7 C 17,7 C 82 % 1022,4 hPa 0,0 l/m 0,8 km/h (0 Bft) S-SO 165 0 min 0 W/m 14,6 C 17,7 C 3,2 km/h (1 Bft)
28.05.2018 02:15 17,7 C 17,7 C 82 % 1022,4 hPa 0,0 l/m 1,1 km/h (1 Bft) S-SO 165 0 min 0 W/m 14,6 C 17,7 C 1,6 km/h (1 Bft)
28.05.2018 02:10 17,8 C 17,8 C 82 % 1022,4 hPa 0,0 l/m 1,1 km/h (1 Bft) S-SO 165 0 min 0 W/m 14,7 C 17,8 C 3,2 km/h (1 Bft)
28.05.2018 02:05 17,8 C 17,8 C 82 % 1022,4 hPa 0,0 l/m 1,7 km/h (1 Bft) S-SO 165 0 min 0 W/m 14,7 C 17,8 C 3,2 km/h (1 Bft)
28.05.2018 02:00 18,0 C 18,0 C 81 % 1022,3 hPa 0,0 l/m 1,6 km/h (1 Bft) S-SO 165 0 min 0 W/m 14,7 C 18,0 C 3,2 km/h (1 Bft)
28.05.2018 01:55 18,1 C 18,1 C 81 % 1022,4 hPa 0,0 l/m 1,8 km/h (1 Bft) S-SO 168 0 min 0 W/m 14,8 C 18,1 C 3,2 km/h (1 Bft)
28.05.2018 01:50 18,3 C 18,3 C 81 % 1022,4 hPa 0,0 l/m 2,3 km/h (1 Bft) S-SO 168 0 min 0 W/m 15,0 C 18,3 C 6,4 km/h (2 Bft)
28.05.2018 01:45 18,4 C 18,4 C 81 % 1022,4 hPa 0,0 l/m 2,1 km/h (1 Bft) S 169 0 min 0 W/m 15,1 C 18,4 C 3,2 km/h (1 Bft)
28.05.2018 01:40 18,6 C 18,6 C 81 % 1022,3 hPa 0,0 l/m 1,1 km/h (1 Bft) S 180 0 min 0 W/m 15,3 C 18,6 C 3,2 km/h (1 Bft)
28.05.2018 01:35 18,7 C 18,7 C 81 % 1022,3 hPa 0,0 l/m 0,6 km/h (0 Bft) S 190 0 min 0 W/m 15,4 C 18,7 C 3,2 km/h (1 Bft)
28.05.2018 01:30 18,8 C 18,8 C 80 % 1022,3 hPa 0,0 l/m 0,3 km/h (0 Bft) S 190 0 min 0 W/m 15,3 C 18,8 C 1,6 km/h (1 Bft)
28.05.2018 01:25 18,9 C 18,9 C 80 % 1022,3 hPa 0,0 l/m 1,7 km/h (1 Bft) S 190 0 min 0 W/m 15,4 C 18,9 C 3,2 km/h (1 Bft)
28.05.2018 01:20 19,1 C 19,1 C 79 % 1022,2 hPa 0,0 l/m 1,6 km/h (1 Bft) S 190 0 min 0 W/m 15,4 C 19,1 C 3,2 km/h (1 Bft)
28.05.2018 01:15 19,2 C 19,2 C 78 % 1022,3 hPa 0,0 l/m 2,5 km/h (1 Bft) S 190 0 min 0 W/m 15,3 C 19,2 C 4,8 km/h (1 Bft)
28.05.2018 01:10 19,3 C 19,3 C 78 % 1022,1 hPa 0,0 l/m 1,2 km/h (1 Bft) NO 38 0 min 0 W/m 15,4 C 19,3 C 3,2 km/h (1 Bft)
28.05.2018 01:05 19,4 C 19,4 C 78 % 1022,1 hPa 0,0 l/m 1,0 km/h (0 Bft) N-NO 32 0 min 0 W/m 15,5 C 19,4 C 1,6 km/h (1 Bft)
28.05.2018 01:00 19,5 C 19,5 C 77 % 1022,2 hPa 0,0 l/m 2,1 km/h (1 Bft) N-NO 32 0 min 0 W/m 15,4 C 19,5 C 3,2 km/h (1 Bft)
28.05.2018 00:55 19,7 C 19,7 C 77 % 1022,3 hPa 0,0 l/m 2,0 km/h (1 Bft) N-NO 32 0 min 0 W/m 15,5 C 19,7 C 3,2 km/h (1 Bft)
28.05.2018 00:50 19,8 C 19,8 C 77 % 1022,3 hPa 0,0 l/m 2,6 km/h (1 Bft) N-NO 32 0 min 0 W/m 15,6 C 19,8 C 4,8 km/h (1 Bft)
28.05.2018 00:45 20,0 C 20,0 C 76 % 1022,5 hPa 0,0 l/m 2,1 km/h (1 Bft) N-NO 26 0 min 0 W/m 15,6 C 20,0 C 3,2 km/h (1 Bft)
28.05.2018 00:40 20,1 C 20,1 C 75 % 1022,6 hPa 0,0 l/m 2,4 km/h (1 Bft) N-NO 24 0 min 0 W/m 15,5 C 20,1 C 3,2 km/h (1 Bft)
28.05.2018 00:35 20,1 C 20,1 C 74 % 1022,7 hPa 0,0 l/m 2,5 km/h (1 Bft) N-NO 12 0 min 0 W/m 15,3 C 20,1 C 6,4 km/h (2 Bft)
28.05.2018 00:30 20,2 C 20,2 C 74 % 1022,8 hPa 0,0 l/m 3,0 km/h (1 Bft) N 355 0 min 0 W/m 15,4 C 20,2 C 4,8 km/h (1 Bft)
28.05.2018 00:25 20,2 C 20,2 C 74 % 1022,8 hPa 0,0 l/m 3,4 km/h (1 Bft) N-NW 344 0 min 0 W/m 15,4 C 20,2 C 6,4 km/h (2 Bft)
28.05.2018 00:20 20,3 C 20,3 C 75 % 1022,9 hPa 0,0 l/m 2,7 km/h (1 Bft) N 5 0 min 0 W/m 15,7 C 20,3 C 4,8 km/h (1 Bft)
28.05.2018 00:15 20,4 C 20,4 C 74 % 1022,9 hPa 0,0 l/m 3,1 km/h (1 Bft) N-NO 16 0 min 0 W/m 15,6 C 20,4 C 4,8 km/h (1 Bft)
28.05.2018 00:10 20,5 C 20,5 C 75 % 1022,9 hPa 0,0 l/m 3,2 km/h (1 Bft) N-NO 16 0 min 0 W/m 15,9 C 20,5 C 4,8 km/h (1 Bft)
28.05.2018 00:05 20,6 C 20,6 C 75 % 1022,9 hPa 0,0 l/m 3,2 km/h (1 Bft) NO 43 0 min 0 W/m 16,0 C 20,6 C 4,8 km/h (1 Bft)
28.05.2018 00:00 20,7 C 20,7 C 74 % 1022,9 hPa 0,0 l/m 3,3 km/h (1 Bft) NO 42 0 min 0 W/m 15,9 C 20,7 C 4,8 km/h (1 Bft)
_ Min-Zeit 05:55 05:55 09:00 01:05 - 02:40 - - - - 05:25 05:25 02:40
Minimum _ 15,6 C 15,6 C 65 % 1022,1 hPa - 0,0 km/h (0 Bft) - - - - 13,5 C 15,7 C 0,0 km/h (0 Bft)
_ Max-Zeit 09:30 09:30 06:00 06:00 00:00 05:55 - - 00:00 00:00 09:30 09:30 09:15
Maximum _ 24,9 C 24,4 C 88 % 1023,2 hPa 0,0 l/m 3,9 km/h
S (1 Bft)
- - 0 min 0 W/m 17,9 C 24,9 C 9,7 km/h
S-SO (2 Bft)
Durchschnitt _ 18,3 C 18,2 C 81 % 1022,8 hPa #0,0 l/m 1,8 km/h (1 Bft) N-NO - #0 min. 0 W/m 15,0 C 18,3 C 4,0 km/h (1 Bft)